Regional Weather Roundup
Issued by NWS

Home | Current Version | Previous Version | Text Only | Print | Product List | Glossary Off
Versions: 1 2 3 4 5 6 7 8 9 10 11 12 13 14 15 16 17 18 19 20 21 22 23 24 25 26 27 28 29 30 31 32 33 34 35 36 37 38 39 40 41 42 43 44 45 46 47 48 49 50

000
ASUS43 KFSD 170710
RWRSD

WEATHER ROUNDUP FOR SOUTH DAKOTA
NATIONAL WEATHER SERVICE SIOUX FALLS SD
200 AM CDT TUE OCT 17 2017

NOTE: "FAIR" INDICATES FEW OR NO CLOUDS BELOW 12,000 FEET WITH NO
SIGNIFICANT WEATHER AND/OR OBSTRUCTIONS TO VISIBILITY.


SDZ001>005-009-010-012>017-170800-
NORTHWEST AND NORTH CENTRAL SOUTH DAKOTA

CITY           SKY/WX    TMP DP  RH WIND       PRES   REMARKS
BUFFALO          N/A     46  27  47 W10       29.97F
FAITH            N/A     46  29  51 SW7       30.04F
MOBRIDGE       CLEAR     38  34  85 N3        29.99R
$$

SDZ012>016-024>037-041>051-057-063-072>074-170800-
SOUTHWEST AND SOUTH CENTRAL SOUTH DAKOTA

CITY           SKY/WX    TMP DP  RH WIND       PRES   REMARKS
RAPID CTY ARPT CLEAR     40  28  62 NW7       30.09F
PIERRE         CLEAR     47  37  68 W9        30.02S
CUSTER         CLEAR     46  19  34 W5        30.20S
ELLSWORTH AFB  CLEAR     45  28  50 SW9       30.09S
PHILIP         CLEAR     39  35  86 SW3       30.07S
PINE RIDGE     CLEAR     33  30  88 NW3       30.13S
SPEARFISH      FAIR      46  25  42 CALM      30.11S
WINNER         FAIR      47  37  68 SW6       30.06R
$$

SDZ004>011-016>023-039-040-170800-
NORTHEAST SOUTH DAKOTA

CITY           SKY/WX    TMP DP  RH WIND       PRES   REMARKS
ABERDEEN       CLEAR     37  34  89 SW5       29.99R
WATERTOWN      CLEAR     43  39  86 CALM      29.99R
BROOKINGS      CLEAR     47  39  74 CALM      30.02R
SISSETON         N/A     47  39  74 CALM      29.95S
$$

SDZ017-020-022-023-036>040-048>070-170800-
SOUTHEAST SOUTH DAKOTA

CITY           SKY/WX    TMP DP  RH WIND       PRES   REMARKS
SIOUX FALLS    CLEAR     42  39  89 CALM      30.02S
HURON          CLEAR     42  39  89 CALM      30.01R
CHAMBERLAIN    CLEAR     48  41  75 CALM      30.04R
MITCHELL       CLEAR     49  40  71 SW6       30.02S
YANKTON        CLEAR     50  40  68 CALM      30.02S
$$

ABBREVIATIONS USED IN REMARKS
   TC - TEMPERATURE IN CELSIUS
  WCI - WIND CHILL INDEX
   HX - HEAT INDEX
  VSB - VISIBILITY





USA.gov is the U.S. government's official web portal to all federal, state and local government web resources and services.